User: anonymous   Login
Location: La Comballaz
(46.3780°N, 7.0817°E)
Time: 08:47:46
(UTC+00:00)
Language:

DOVE 4 - Orbit

View from above orbital plane
View from above orbital plane
View from above satellite
View from above satellite

Ground track
Ground track

The orbit data is extracted from the following two-line orbital elements,

1 39430U 13066Q   22330.76997548  .00001234  00000-0  22697-3 0  9999
2 39430  97.7962 228.6151 0146737 252.8983 105.6110 14.60664793479988
Epoch (UTC): 26 November 2022 18:28:45
Eccentricity: 0.0146737
inclination: 97.7962°
perigee height: 587 km
apogee height: 795 km
right ascension of ascending node: 228.6151°
argument of perigee: 252.8983°
revolutions per day: 14.60664793
mean anomaly at epoch: 105.6110°
orbit number at epoch: 47998

The dashed part of the orbit path shows where the satellite is in the earth's shadow,  

DLR